• în România
  • Lista ţărilor
  • Pe 7 zile
  • Temperatura apei
  • Hartă satelitară
  • Meteo pe hartă
  • Widget-uri
  • user-avatar
    Intrare

    Meteo pe oră la Skraby

    Astăzi, 20 Aprilie, Vineri

    Timp Temperatura Precipitaţii Vânt Presiune Umiditate
    00:00 +5°C° 0 mm 3 m/s 747 mmHg 86%
    01:00 +5°C° 0 mm 3 m/s 747 mmHg 88%
    02:00 +4°C° 0 mm 3 m/s 747 mmHg 90%
    03:00 +4°C° 0 mm 3 m/s 748 mmHg 92%
    04:00 +4°C° 0 mm 3 m/s 748 mmHg 94%
    05:00 +4°C° 0 mm 3 m/s 748 mmHg 96%
    06:00 +5°C° 0 mm 3 m/s 748 mmHg 94%
    07:00 +5°C° 0 mm 3 m/s 748 mmHg 91%
    08:00 +7°C° 0 mm 3 m/s 749 mmHg 89%
    09:00 +8°C° 0 mm 3 m/s 749 mmHg 85%
    10:00 +8°C° 0 mm 3 m/s 749 mmHg 81%
    11:00 +9°C° 0 mm 3 m/s 749 mmHg 76%
    12:00 +10°C° 0 mm 3 m/s 749 mmHg 71%
    13:00 +13°C° 0 mm 2 m/s 748 mmHg 65%
    14:00 +14°C° 0 mm 2 m/s 748 mmHg 59%
    15:00 +14°C° 0 mm 2 m/s 748 mmHg 59%
    16:00 +14°C° 0 mm 2 m/s 747 mmHg 58%
    17:00 +14°C° 0 mm 2 m/s 747 mmHg 58%
    18:00 +13°C° 0 mm 2 m/s 746 mmHg 65%
    19:00 +10°C° 0 mm 2 m/s 746 mmHg 72%
    20:00 +9°C° 0 mm 2 m/s 745 mmHg 79%
    21:00 +9°C° 0 mm 2 m/s 744 mmHg 78%
    22:00 +9°C° 0 mm 3 m/s 744 mmHg 78%
    23:00 +9°C° 0 mm 3 m/s 743 mmHg 77%

    Mâine, 21 Aprilie, Sâmbătă

    Timp Temperatura Precipitaţii Vânt Presiune Umiditate
    00:00 +9°C° 0 mm 3 m/s 742 mmHg 79%
    01:00 +8°C° 0 mm 4 m/s 741 mmHg 82%
    02:00 +8°C° 0 mm 4 m/s 740 mmHg 84%
    03:00 +8°C° 0 mm 4 m/s 739 mmHg 87%
    04:00 +8°C° 0 mm 4 m/s 738 mmHg 89%
    05:00 +8°C° 0 mm 4 m/s 737 mmHg 92%
    06:00 +9°C° 0 mm 5 m/s 736 mmHg 88%
    07:00 +10°C° 0 mm 5 m/s 735 mmHg 83%
    08:00 +11°C° 0 mm 6 m/s 734 mmHg 79%
    09:00 +11°C° 0,2 mm 6 m/s 734 mmHg 80%
    10:00 +13°C° 0,2 mm 6 m/s 733 mmHg 80%
    11:00 +13°C° 0,2 mm 6 m/s 732 mmHg 81%
    12:00 +12°C° 0,3 mm 7 m/s 732 mmHg 74%
    13:00 +12°C° 0,3 mm 8 m/s 732 mmHg 67%
    14:00 +12°C° 0,3 mm 9 m/s 732 mmHg 61%
    15:00 +11°C° 0 mm 8 m/s 733 mmHg 61%
    16:00 +10°C° 0 mm 7 m/s 733 mmHg 62%
    17:00 +8°C° 0 mm 7 m/s 734 mmHg 63%
    18:00 +8°C° 0,1 mm 6 m/s 734 mmHg 66%
    19:00 +7°C° 0,1 mm 6 m/s 734 mmHg 69%
    20:00 +7°C° 0,1 mm 5 m/s 735 mmHg 72%
    21:00 +6°C° 0 mm 5 m/s 735 mmHg 73%
    22:00 +6°C° 0 mm 5 m/s 735 mmHg 75%
    23:00 +6°C° 0 mm 5 m/s 736 mmHg 76%

    Poimâine, 22 Aprilie, Duminică

    Timp Temperatura Precipitaţii Vânt Presiune Umiditate
    00:00 +5°C° 0,1 mm 5 m/s 736 mmHg 77%
    01:00 +5°C° 0,1 mm 5 m/s 736 mmHg 77%
    02:00 +5°C° 0,1 mm 5 m/s 736 mmHg 78%
    03:00 +5°C° 0,1 mm 5 m/s 736 mmHg 79%
    04:00 +5°C° 0,1 mm 5 m/s 736 mmHg 80%
    05:00 +3°C° 0,1 mm 5 m/s 737 mmHg 81%
    06:00 +5°C° 0,1 mm 5 m/s 737 mmHg 81%
    07:00 +5°C° 0,1 mm 4 m/s 737 mmHg 80%
    08:00 +5°C° 0,1 mm 4 m/s 737 mmHg 79%
    09:00 +5°C° 0,1 mm 4 m/s 737 mmHg 77%
    10:00 +6°C° 0,1 mm 4 m/s 738 mmHg 75%
    11:00 +6°C° 0,1 mm 4 m/s 738 mmHg 73%
    12:00 +7°C° 0,2 mm 4 m/s 738 mmHg 71%
    13:00 +7°C° 0,2 mm 5 m/s 738 mmHg 69%
    14:00 +7°C° 0,2 mm 5 m/s 738 mmHg 67%
    15:00 +7°C° 0,3 mm 4 m/s 738 mmHg 68%
    16:00 +7°C° 0,3 mm 4 m/s 738 mmHg 70%
    17:00 +6°C° 0,3 mm 4 m/s 739 mmHg 71%
    18:00 +5°C° 0,1 mm 3 m/s 739 mmHg 76%
    19:00 +5°C° 0,1 mm 2 m/s 739 mmHg 81%
    20:00 +4°C° 0,1 mm 2 m/s 740 mmHg 86%
    21:00 +4°C° 0 mm 2 m/s 740 mmHg 87%
    22:00 +3°C° 0 mm 2 m/s 741 mmHg 88%
    23:00 +3°C° 0 mm 1 m/s 741 mmHg 89%

    23 Aprilie, Luni

    Timp Temperatura Precipitaţii Vânt Presiune Umiditate
    00:00 +3°C° 0 mm 1 m/s 741 mmHg 89%
    01:00 +2°C° 0 mm 1 m/s 742 mmHg 89%
    02:00 +2°C° 0 mm 1 m/s 742 mmHg 88%
    03:00 +1°C° 0 mm 1 m/s 742 mmHg 87%
    04:00 +1°C° 0 mm 1 m/s 743 mmHg 86%
    05:00 +1°C° 0 mm 1 m/s 743 mmHg 85%
    06:00 +2°C° 0 mm 1 m/s 743 mmHg 76%
    07:00 +4°C° 0 mm 1 m/s 743 mmHg 67%
    08:00 +5°C° 0 mm 1 m/s 744 mmHg 58%
    09:00 +7°C° 0 mm 1 m/s 744 mmHg 52%
    10:00 +7°C° 0 mm 2 m/s 744 mmHg 46%
    11:00 +8°C° 0 mm 2 m/s 744 mmHg 40%
    12:00 +8°C° 0 mm 2 m/s 744 mmHg 38%
    13:00 +9°C° 0 mm 2 m/s 744 mmHg 36%
    14:00 +9°C° 0 mm 2 m/s 743 mmHg 34%
    15:00 +9°C° 0 mm 2 m/s 743 mmHg 35%
    16:00 +9°C° 0 mm 2 m/s 743 mmHg 36%
    17:00 +9°C° 0 mm 2 m/s 743 mmHg 37%
    18:00 +7°C° 0 mm 2 m/s 743 mmHg 44%
    19:00 +6°C° 0 mm 1 m/s 743 mmHg 51%
    20:00 +4°C° 0 mm 1 m/s 743 mmHg 57%
    21:00 +4°C° 0 mm 1 m/s 743 mmHg 60%
    22:00 +3°C° 0 mm 1 m/s 743 mmHg 62%
    23:00 +1°C° 0 mm 2 m/s 743 mmHg 65%

    24 Aprilie, Marţi

    Timp Temperatura Precipitaţii Vânt Presiune Umiditate
    00:00 +1°C° 0 mm 2 m/s 743 mmHg 67%
    01:00 -1°C° 0 mm 2 m/s 742 mmHg 69%
    02:00 -1°C° 0 mm 2 m/s 742 mmHg 71%
    03:00 -1°C° 0 mm 2 m/s 742 mmHg 71%
    04:00 -1°C° 0 mm 2 m/s 742 mmHg 71%
    05:00 -1°C° 0 mm 2 m/s 742 mmHg 71%
    06:00 +1°C° 0 mm 3 m/s 741 mmHg 66%
    07:00 +3°C° 0 mm 3 m/s 741 mmHg 61%
    08:00 +4°C° 0 mm 3 m/s 741 mmHg 55%
    09:00 +6°C° 0 mm 4 m/s 741 mmHg 52%
    10:00 +7°C° 0 mm 4 m/s 740 mmHg 48%
    11:00 +10°C° 0 mm 4 m/s 740 mmHg 44%
    12:00 +10°C° 0 mm 4 m/s 740 mmHg 44%
    13:00 +11°C° 0 mm 4 m/s 739 mmHg 43%
    14:00 +11°C° 0 mm 4 m/s 739 mmHg 42%
    15:00 +11°C° 0,1 mm 4 m/s 739 mmHg 47%
    16:00 +10°C° 0,1 mm 3 m/s 738 mmHg 53%
    17:00 +9°C° 0,1 mm 3 m/s 738 mmHg 58%
    18:00 +8°C° 0,1 mm 3 m/s 738 mmHg 64%
    19:00 +7°C° 0,1 mm 3 m/s 738 mmHg 70%
    20:00 +6°C° 0,1 mm 2 m/s 738 mmHg 76%
    21:00 +5°C° 0,1 mm 3 m/s 738 mmHg 79%
    22:00 +5°C° 0,1 mm 3 m/s 738 mmHg 82%
    23:00 +5°C° 0,1 mm 3 m/s 737 mmHg 84%

    25 Aprilie, Miercuri

    Timp Temperatura Precipitaţii Vânt Presiune Umiditate
    00:00 +6°C° 0,1 mm 2 m/s 737 mmHg 87%
    01:00 +6°C° 0,1 mm 2 m/s 737 mmHg 89%
    02:00 +6°C° 0,1 mm 2 m/s 737 mmHg 91%
    03:00 +6°C° 0,1 mm 2 m/s 738 mmHg 92%
    04:00 +5°C° 0,1 mm 2 m/s 738 mmHg 92%
    05:00 +5°C° 0,1 mm 2 m/s 738 mmHg 93%
    06:00 +6°C° 0,1 mm 2 m/s 738 mmHg 91%
    07:00 +6°C° 0,1 mm 2 m/s 738 mmHg 90%
    08:00 +6°C° 0,1 mm 2 m/s 738 mmHg 88%
    09:00 +7°C° 0 mm 2 m/s 738 mmHg 84%
    10:00 +8°C° 0 mm 3 m/s 738 mmHg 81%
    11:00 +8°C° 0 mm 3 m/s 739 mmHg 77%
    12:00 +9°C° 0 mm 3 m/s 738 mmHg 73%
    13:00 +10°C° 0 mm 3 m/s 738 mmHg 68%
    14:00 +11°C° 0 mm 3 m/s 738 mmHg 63%
    15:00 +11°C° 0 mm 3 m/s 737 mmHg 63%
    16:00 +11°C° 0 mm 3 m/s 737 mmHg 62%
    17:00 +11°C° 0 mm 3 m/s 736 mmHg 61%
    18:00 +11°C° 0,2 mm 4 m/s 736 mmHg 67%
    19:00 +10°C° 0,2 mm 4 m/s 735 mmHg 73%
    20:00 +8°C° 0,2 mm 4 m/s 735 mmHg 79%
    21:00 +8°C° 1,2 mm 4 m/s 734 mmHg 83%
    22:00 +8°C° 1,2 mm 5 m/s 734 mmHg 87%
    23:00 +8°C° 1,2 mm 5 m/s 733 mmHg 91%
    Arată mai mult